EW6703 Weather Reports


Display with metric or nautical units.
time (UTC)temp
F
wind
direction
speed
MPH
gust
MPH
rain 1hr
in
rain 24hr
in
rain mn
in
humidity
%
barometer
mb
20260506192404 63 198 3.0 9.0 0.00 0.18 0.18 88 995.5
20260506191638 63 223 4.0 12.0 0.00 0.18 0.18 88 995.5
20260506191140 63 238 4.0 12.0 0.00 0.18 0.18 88 995.7
20260506190637 63 214 3.0 11.0 0.00 0.18 0.18 88 995.6
20260506190138 63 218 3.0 11.0 0.00 0.18 0.18 89 995.7
20260506185901 62 240 3.0 8.0 0.00 0.18 0.18 89 995.7
20260506185137 62 198 4.0 12.0 0.00 0.18 0.18 89 995.8
20260506184909 62 230 4.0 12.0 0.00 0.18 0.18 89 995.8
20260506184137 62 241 4.0 9.0 0.00 0.18 0.18 89 995.9
20260506183638 62 227 4.0 11.0 0.00 0.18 0.18 89 996.0
20260506183354 62 240 3.0 11.0 0.00 0.18 0.18 89 996.0
20260506182634 62 246 4.0 12.0 0.00 0.18 0.18 89 996.0
20260506182133 62 211 5.0 15.0 0.00 0.18 0.18 89 996.0
20260506181632 62 221 5.0 15.0 0.00 0.18 0.18 89 996.1
20260506181133 62 288 4.0 12.0 0.00 0.18 0.18 89 996.0
20260506180632 62 269 3.0 11.0 0.00 0.18 0.18 89 996.0
20260506180355 62 225 4.0 12.0 0.00 0.18 0.18 89 996.0
20260506175635 62 230 3.0 12.0 0.00 0.18 0.18 89 996.0
20260506175134 62 146 3.0 12.0 0.00 0.18 0.18 89 996.1
20260506174631 62 227 4.0 12.0 0.00 0.18 0.18 89 996.2
20260506174353 62 228 3.0 9.0 0.00 0.18 0.18 89 996.2
20260506173631 62 218 3.0 9.0 0.00 0.18 0.18 90 996.2
20260506173128 62 227 3.0 9.0 0.00 0.18 0.18 90 996.1
20260506172629 62 250 3.0 8.0 0.00 0.18 0.18 90 996.1
20260506172129 62 233 4.0 14.0 0.01 0.18 0.18 90 996.3
20260506171631 62 240 5.0 14.0 0.01 0.18 0.18 89 996.4
20260506171131 62 233 4.0 12.0 0.01 0.18 0.18 90 996.5
20260506170631 62 227 3.0 10.0 0.01 0.18 0.18 90 996.3
20260506170351 63 221 3.0 10.0 0.02 0.18 0.18 90 996.4
20260506165855 63 153 4.0 11.0 0.03 0.18 0.18 90 996.3
20260506165128 63 233 3.0 11.0 0.04 0.18 0.18 90 996.3
20260506164630 63 213 3.0 8.0 0.06 0.18 0.18 90 996.3
20260506164128 63 227 3.0 7.0 0.07 0.18 0.18 90 996.4
20260506164119 62 207 3.0 6.0 0.09 0.18 0.18 91 996.3
20260506163129 62 126 2.0 5.0 0.10 0.18 0.18 90 996.6
20260506162627 62 194 2.0 6.0 0.11 0.18 0.18 90 996.3
20260506162351 62 229 1.0 6.0 0.11 0.17 0.18 90 996.4
20260506161621 62 141 1.0 5.0 0.13 0.17 0.17 90 996.7
20260506161115 62 229 1.0 5.0 0.14 0.17 0.17 90 997.0
20260506160608 62 210 1.0 3.0 0.14 0.17 0.17 89 997.3
20260506160105 62 173 1.0 6.0 0.14 0.16 0.16 89 997.5
20260506155821 62 221 1.0 6.0 0.13 0.15 0.15 88 997.6
20260506155052 62 237 1.0 5.0 0.12 0.14 0.14 88 997.7
20260506154552 62 243 1.0 4.0 0.11 0.12 0.12 88 997.7
20260506154055 62 242 1.0 5.0 0.09 0.10 0.11 87 997.6
20260506153552 63 226 1.0 5.0 0.09 0.09 0.09 87 997.6
20260506153051 63 283 1.0 3.0 0.08 0.08 0.08 86 997.6
20260506152548 63 193 2.0 6.0 0.07 0.07 0.07 85 997.5
20260506152047 63 217 2.0 6.0 0.05 0.05 0.06 85 997.4
20260506151546 63 262 2.0 7.0 0.04 0.04 0.04 84 997.5
20260506151046 64 249 2.0 7.0 0.03 0.03 0.03 84 997.6
20260506150547 64 230 2.0 9.0 0.03 0.03 0.03 84 997.6
20260506150048 64 240 2.0 9.0 0.02 0.02 0.02 83 997.5
20260506145544 64 219 2.0 6.0 0.02 0.02 0.02 83 997.5
20260506145314 65 246 1.0 3.0 0.02 0.02 0.02 82 997.4
20260506144545 65 311 1.0 5.0 0.01 0.01 0.02 81 997.3
20260506144046 65 228 2.0 5.0 0.01 0.01 0.01 80 997.4
20260506143543 65 247 2.0 8.0 0.00 0.00 0.01 79 997.6
20260506143042 65 269 3.0 8.0 0.00 0.00 0.00 78 997.7
20260506142542 66 232 3.0 9.0 0.00 0.00 0.00 76 997.6
20260506142259 66 246 4.0 13.0 0.00 0.00 0.00 75 997.6
20260506141528 66 213 4.0 13.0 0.00 0.00 0.00 74 997.6
20260506141511 67 213 4.0 13.0 0.00 0.00 0.00 73 997.6
20260506140517 67 245 4.0 15.0 0.00 0.00 0.00 73 997.4
20260506140012 67 221 3.0 15.0 0.00 0.00 0.00 73 997.4
20260506135722 67 246 3.0 7.0 0.00 0.00 0.00 74 997.2
20260506134959 67 211 3.0 13.0 0.00 0.00 0.00 74 997.2
20260506134452 67 269 4.0 13.0 0.00 0.00 0.00 75 997.2
20260506134204 66 247 5.0 17.0 0.00 0.00 0.00 75 997.3
20260506133710 66 231 5.0 17.0 0.00 0.00 0.00 74 997.3
20260506133201 66 238 4.0 10.0 0.00 0.00 0.00 74 997.4
20260506132907 66 254 3.0 10.0 0.00 0.00 0.00 74 997.4
20260506132142 66 215 4.0 10.0 0.00 0.00 0.00 74 997.3
20260506131418 66 200 4.0 10.0 0.00 0.00 0.00 74 997.4
20260506130912 66 246 3.0 9.0 0.00 0.00 0.00 74 997.4
20260506130628 66 188 4.0 8.0 0.00 0.00 0.00 74 997.5
20260506125859 66 242 5.0 11.0 0.00 0.00 0.00 74 997.7
20260506125614 66 240 4.0 11.0 0.00 0.00 0.00 74 997.7
20260506124847 66 225 4.0 12.0 0.00 0.00 0.00 74 997.7
20260506124342 66 94 5.0 13.0 0.00 0.00 0.00 74 997.5
20260506123835 66 194 4.0 13.0 0.00 0.00 0.00 76 997.4
20260506123558 65 225 3.0 10.0 0.00 0.00 0.00 76 997.4
20260506122823 65 229 3.0 10.0 0.00 0.00 0.00 76 997.4
20260506122805 65 252 2.0 8.0 0.00 0.00 0.00 77 997.4
20260506122038 65 215 2.0 8.0 0.00 0.00 0.00 77 997.4
20260506121304 65 207 2.0 7.0 0.00 0.00 0.00 77 997.4
20260506120759 65 215 1.0 4.0 0.00 0.00 0.00 77 997.3
20260506120254 65 217 2.0 9.0 0.00 0.00 0.00 78 997.2
20260506115746 65 196 2.0 9.0 0.00 0.00 0.00 78 997.3
20260506115241 64 139 2.0 5.0 0.00 0.00 0.00 78 997.3
20260506114735 64 223 2.0 5.0 0.00 0.00 0.00 78 997.3
20260506114452 64 244 2.0 8.0 0.00 0.00 0.00 78 997.1
20260506113724 64 194 2.0 8.0 0.00 0.00 0.00 78 997.3
20260506113704 64 150 2.0 7.0 0.00 0.00 0.00 78 997.3
20260506112712 64 115 2.0 4.0 0.00 0.00 0.00 78 997.2
20260506112205 64 242 2.0 7.0 0.00 0.00 0.00 78 997.2
20260506111659 64 169 2.0 8.0 0.00 0.00 0.00 78 997.3
20260506111153 64 211 2.0 8.0 0.00 0.00 0.00 78 997.2
20260506110647 64 153 3.0 7.0 0.00 0.00 0.00 78 997.3
20260506110142 64 219 2.0 9.0 0.00 0.00 0.00 79 997.3
20260506105858 64 223 2.0 9.0 0.00 0.00 0.00 79 997.2
20260506105137 64 142 2.0 7.0 0.00 0.00 0.00 79 997.3
20260506104638 64 230 2.0 7.0 0.00 0.00 0.00 79 997.3
20260506104139 64 251 2.0 5.0 0.00 0.00 0.00 79 997.2
20260506103638 64 155 2.0 8.0 0.00 0.00 0.00 79 997.2
20260506103137 64 76 1.0 8.0 0.00 0.00 0.00 79 997.2
20260506102636 64 227 1.0 12.0 0.00 0.00 0.00 79 997.2
20260506102135 64 160 1.0 12.0 0.00 0.00 0.00 79 997.1
20260506101634 64 188 1.0 6.0 0.00 0.00 0.00 79 997.1
20260506101136 64 229 2.0 5.0 0.00 0.00 0.00 79 997.1
20260506100633 64 217 2.0 9.0 0.00 0.00 0.00 78 997.0
20260506100133 64 134 2.0 9.0 0.00 0.00 0.00 78 997.1
20260506095631 64 238 2.0 7.0 0.00 0.00 0.00 78 997.2
20260506095130 64 165 3.0 8.0 0.00 0.00 0.00 78 997.1
20260506094854 64 84 2.0 8.0 0.00 0.00 0.00 78 997.1
20260506094132 64 308 2.0 6.0 0.00 0.00 0.00 78 997.1
20260506093629 64 217 2.0 6.0 0.00 0.00 0.00 77 997.1
20260506093355 65 213 1.0 4.0 0.00 0.00 0.00 77 997.1
20260506092630 65 242 1.0 5.0 0.00 0.00 0.00 77 997.0
20260506092128 65 247 1.0 5.0 0.00 0.00 0.00 77 996.9
20260506091628 65 178 2.0 12.0 0.00 0.00 0.00 77 997.0
20260506091128 65 136 2.0 12.0 0.00 0.00 0.00 77 997.0
20260506090628 65 202 2.0 6.0 0.00 0.00 0.00 77 997.0
20260506090129 65 242 2.0 8.0 0.00 0.00 0.00 77 997.0
20260506085628 65 190 2.0 8.0 0.00 0.00 0.00 77 997.1
20260506085127 65 85 2.0 6.0 0.00 0.00 0.00 77 997.1
20260506084629 65 273 2.0 5.0 0.00 0.00 0.00 77 997.1
20260506084124 65 194 2.0 5.0 0.00 0.00 0.00 77 997.1
20260506083845 65 150 2.0 6.0 0.00 0.00 0.00 77 997.1
20260506083123 65 219 2.0 8.0 0.00 0.00 0.00 77 997.2
20260506082626 65 167 2.0 8.0 0.00 0.00 0.00 77 997.1
20260506082125 65 169 1.0 4.0 0.00 0.00 0.00 77 997.1
20260506081625 65 149 2.0 9.0 0.00 0.00 0.00 77 997.1
20260506081125 65 168 1.0 9.0 0.00 0.00 0.00 77 997.2
20260506080625 65 215 1.0 4.0 0.00 0.00 0.00 76 997.2
20260506080125 65 187 1.0 4.0 0.00 0.00 0.00 76 997.3
20260506073121 65 136 1.0 6.0 0.00 0.00 0.00 75 997.4
20260506072623 65 221 1.0 6.0 0.00 0.00 0.00 74 997.4
20260506072123 65 134 1.0 6.0 0.00 0.00 0.00 74 997.4
20260506071622 66 164 1.0 4.0 0.00 0.00 0.00 74 997.4
20260506071116 66 18 2.0 4.0 0.00 0.00 0.00 73 997.4
20260506070609 66 135 2.0 7.0 0.00 0.00 0.00 73 997.5
20260506070104 66 154 2.0 7.0 0.00 0.00 0.00 73 997.6
20260506062016 66 68 1.0 3.0 0.00 0.00 0.00 72 997.9
20260506061511 66 215 1.0 4.0 0.00 0.00 0.00 72 997.9
20260506061003 66 238 1.0 4.0 0.00 0.00 0.00 71 997.9
20260506060457 66 207 1.0 7.0 0.00 0.00 0.00 71 997.9
20260506051358 66 88 1.0 4.0 0.00 0.00 0.00 69 998.3
20260506050852 67 178 1.0 7.0 0.00 0.00 0.00 69 998.3
20260506050345 67 103 1.0 7.0 0.00 0.00 0.00 68 998.2
20260506044828 67 136 1.0 4.0 0.00 0.00 0.00 67 998.3
20260506044322 67 218 1.0 5.0 0.00 0.00 0.00 67 998.4
20260506043816 67 221 2.0 5.0 0.00 0.00 0.00 67 998.4
20260506043310 67 244 1.0 4.0 0.00 0.00 0.00 67 998.4
20260506042804 67 234 2.0 9.0 0.00 0.00 0.00 67 998.3
20260506042305 67 280 2.0 9.0 0.00 0.00 0.00 67 998.3
20260506042028 67 163 1.0 6.0 0.00 0.00 0.00 67 998.3
20260506041301 66 140 1.0 7.0 0.00 0.00 0.00 67 998.3
20260506041023 67 153 2.0 7.0 0.00 0.00 0.00 67 998.3
20260506040300 67 223 1.0 7.0 0.00 0.00 0.00 66 998.3
20260506035800 67 232 1.0 7.0 0.00 0.00 0.00 66 998.3
20260506035300 67 263 1.0 4.0 0.00 0.00 0.00 66 998.3
20260506034800 67 145 1.0 4.0 0.00 0.00 0.00 65 998.3
20260506034520 67 170 1.0 3.0 0.00 0.00 0.00 65 998.2
20260506033759 67 175 1.0 7.0 0.00 0.00 0.00 65 998.2
20260506033301 67 186 1.0 7.0 0.00 0.00 0.00 64 998.1
20260506033020 68 237 1.0 4.0 0.00 0.00 0.00 64 998.2
20260506032301 68 180 1.0 4.0 0.00 0.00 0.00 63 998.2
20260506031759 68 217 1.0 4.0 0.00 0.00 0.00 63 998.2
20260506031302 68 215 1.0 4.0 0.00 0.00 0.00 62 998.2
20260506030800 68 229 2.0 6.0 0.00 0.00 0.00 62 998.3
20260506030259 69 106 2.0 6.0 0.00 0.00 0.00 61 998.2
20260506025759 69 192 1.0 7.0 0.00 0.00 0.00 60 998.2
20260506025300 69 113 1.0 7.0 0.00 0.00 0.00 60 998.2
20260506024759 69 142 2.0 7.0 0.00 0.00 0.00 59 998.3
20260506024253 70 148 1.0 7.0 0.00 0.00 0.00 58 998.3
20260506023747 70 123 1.0 6.0 0.00 0.00 0.00 57 998.3
20260506023241 70 215 1.0 6.0 0.00 0.00 0.00 56 998.3
20260506022955 71 109 1.0 6.0 0.00 0.00 0.00 55 998.3
20260506022230 71 196 1.0 4.0 0.00 0.00 0.00 54 998.3
20260506021725 71 137 1.0 4.0 0.00 0.00 0.00 53 998.2
20260506021218 71 128 1.0 3.0 0.00 0.00 0.00 53 998.2
20260506020711 71 180 2.0 7.0 0.00 0.00 0.00 53 998.2
20260506020428 72 149 3.0 9.0 0.00 0.00 0.00 52 998.2
20260506015700 72 237 2.0 9.0 0.00 0.00 0.00 52 998.2
20260506015154 72 190 2.0 7.0 0.00 0.00 0.00 52 998.1
20260506014648 72 219 1.0 7.0 0.00 0.00 0.00 51 998.1
20260506014142 72 146 2.0 5.0 0.00 0.00 0.00 50 998.0
20260506013637 72 105 2.0 5.0 0.00 0.00 0.00 50 997.9
20260506013350 73 124 2.0 9.0 0.00 0.00 0.00 50 997.9
20260506012625 73 109 2.0 9.0 0.00 0.00 0.00 49 997.8
20260506012343 73 259 2.0 8.0 0.00 0.00 0.00 49 997.8
20260506011611 73 218 3.0 12.0 0.00 0.00 0.00 49 997.7
20260506011107 73 234 3.0 12.0 0.00 0.00 0.00 48 997.7
20260506010559 73 221 2.0 6.0 0.00 0.00 0.00 48 997.7
20260506010055 73 163 2.0 9.0 0.00 0.00 0.00 47 997.6
20260506005548 73 221 2.0 9.0 0.00 0.00 0.00 47 997.5
20260506005041 74 231 2.0 6.0 0.00 0.00 0.00 47 997.6
20260506004536 74 169 3.0 12.0 0.00 0.00 0.00 47 997.5
20260506004030 74 211 3.0 12.0 0.00 0.00 0.00 46 997.5
20260506003611 74 215 3.0 9.0 0.00 0.00 0.00 47 997.4
20260506002733 74 209 2.0 6.0 0.00 0.00 0.00 47 997.3
20260506002230 74 238 2.0 6.0 0.00 0.00 0.00 47 997.2
20260506001459 74 229 2.0 6.0 0.00 0.00 0.00 47 997.2
20260506000955 74 225 2.0 6.0 0.00 0.00 0.00 47 997.2
20260506000448 75 132 2.0 4.0 0.00 0.00 0.00 47 997.1
20260505235942 75 146 2.0 8.0 0.00 0.00 0.00 47 997.0
20260505235436 75 116 1.0 8.0 0.00 0.00 0.00 47 997.0
20260505234930 76 124 1.0 4.0 0.00 0.00 0.00 47 996.9
20260505234424 76 221 2.0 7.0 0.00 0.00 0.00 46 996.9
20260505233918 76 196 1.0 7.0 0.00 0.00 0.00 45 996.9
20260505233413 76 273 1.0 4.0 0.00 0.00 0.00 45 996.9
20260505232905 77 210 1.0 6.0 0.00 0.00 0.00 44 996.8
20260505232400 77 211 1.0 6.0 0.00 0.00 0.00 43 996.8
20260505231854 77 229 2.0 10.0 0.00 0.00 0.00 42 996.8
20260505231349 77 213 2.0 10.0 0.00 0.00 0.00 41 996.7
20260505230842 78 219 3.0 11.0 0.00 0.00 0.00 41 996.7
20260505230557 78 154 3.0 11.0 0.00 0.00 0.00 40 996.6
20260505225830 78 137 4.0 11.0 0.00 0.00 0.00 40 996.7
20260505225324 78 224 4.0 15.0 0.00 0.00 0.00 39 996.6
20260505225035 78 237 4.0 15.0 0.00 0.00 0.00 38 996.7
20260505224313 79 223 4.0 13.0 0.00 0.00 0.00 38 996.7
20260505223805 79 200 4.0 19.0 0.00 0.00 0.00 38 996.6
20260505223259 79 278 4.0 19.0 0.00 0.00 0.00 37 996.5
20260505222754 79 237 4.0 10.0 0.00 0.00 0.00 37 996.5
20260505222248 80 190 5.0 10.0 0.00 0.00 0.00 37 996.6
20260505221742 80 214 5.0 14.0 0.00 0.00 0.00 37 996.5
20260505221237 80 260 5.0 14.0 0.00 0.00 0.00 37 996.5
20260505220731 80 234 5.0 11.0 0.00 0.00 0.00 37 996.5
20260505220225 80 219 6.0 15.0 0.00 0.00 0.00 36 996.4
20260505215938 80 205 6.0 15.0 0.00 0.00 0.00 36 996.4
20260505215212 80 227 6.0 15.0 0.00 0.00 0.00 36 996.4
20260505214705 80 235 6.0 15.0 0.00 0.00 0.00 36 996.5
20260505214200 80 243 6.0 15.0 0.00 0.00 0.00 35 996.4
20260505213654 80 240 6.0 18.0 0.00 0.00 0.00 35 996.4
20260505213149 80 266 7.0 18.0 0.00 0.00 0.00 34 996.2
20260505212642 80 213 7.0 18.0 0.00 0.00 0.00 35 996.3
20260505212136 81 243 7.0 18.0 0.00 0.00 0.00 34 996.4
20260505211630 81 232 6.0 15.0 0.00 0.00 0.00 33 996.4
20260505211345 81 219 6.0 15.0 0.00 0.00 0.00 35 996.2
20260505210618 82 247 7.0 18.0 0.00 0.00 0.00 34 996.3
20260505210112 82 209 6.0 18.0 0.00 0.00 0.00 33 996.5
20260505205100 82 211 5.0 12.0 0.00 0.00 0.00 34 996.3
20260505204811 82 254 5.0 16.0 0.00 0.00 0.00 34 996.3
20260505204055 82 212 8.0 19.0 0.00 0.00 0.00 34 996.2
20260505203555 82 138 7.0 19.0 0.00 0.00 0.00 32 996.3
20260505203053 82 213 6.0 16.0 0.00 0.00 0.00 34 996.3
20260505202553 82 263 6.0 16.0 0.00 0.00 0.00 33 996.3
20260505202050 82 217 6.0 19.0 0.00 0.00 0.00 32 996.3
20260505201552 83 227 7.0 19.0 0.00 0.00 0.00 31 996.5
20260505201050 83 192 7.0 17.0 0.00 0.00 0.00 33 996.5
20260505200549 83 221 7.0 15.0 0.00 0.00 0.00 31 996.4
20260505200049 83 182 6.0 16.0 0.00 0.00 0.00 32 996.5
20260505195549 83 219 6.0 16.0 0.00 0.00 0.00 32 996.5
20260505195050 83 226 7.0 17.0 0.00 0.00 0.00 32 996.5
20260505194548 82 204 8.0 17.0 0.00 0.00 0.00 33 996.5
20260505194050 82 250 7.0 18.0 0.00 0.00 0.00 33 996.5
20260505193549 83 217 6.0 18.0 0.00 0.00 0.00 31 996.7
20260505193046 83 170 6.0 17.0 0.00 0.00 0.00 33 996.6
20260505192809 82 226 7.0 19.0 0.00 0.00 0.00 32 996.8